Track COSMOS 1231 now! 10-day predictions COSMOS 1231 is classified as:
1 12110U 80102D 22136.43314653 .00000017 00000-0 19816-3 0 9995 2 12110 73.9939 204.2518 0037016 166.7587 204.8146 12.57099946899537